Regional Weather Roundup
Issued by NWS New Orleans/Baton Rouge, LA

Home | Current Version | Previous Version | Graphics & Text | Print | Product List | Glossary On
Versions: 1 2 3 4 5 6 7 8 9 10 11 12 13 14 15 16 17 18 19 20 21 22 23 24 25 26 27 28 29 30 31 32 33 34 35 36 37 38 39 40 41 42 43 44 45 46 47 48 49 50
343
ASUS44 KLIX 230110
RWRLIX
NEW ORLEANS REGIONAL WEATHER ROUNDUP
NATIONAL WEATHER SERVICE NEW ORLEANS LA
800 PM CDT TUE JUL 22 2014

NOTE: "FAIR" INDICATES FEW OR NO CLOUDS BELOW 12,000 FEET WITH NO
      SIGNIFICANT WEATHER AND/OR OBSTRUCTIONS TO VISIBILITY.
      SKY/WX - SKY CONDITION AND SIGNIFICANT WEATHER.
      TMP - AIR TEMPERATURE.     DP    - DEWPOINT TEMPERATURE.
      RH  - RELATIVE HUMIDITY.   PRES  - PRESSURE.
      HI  - HEAT INDEX.          WCI   - WIND CHILL INDEX.

*  THESE STATIONS ARE NOT NWS OR FAA STATIONS AND ARE NOT UNDER
   NWS QUALITY CONTROL.

LAZ038-040-048-061>063-065>067-069-230200-
SOUTHEAST LOUISIANA

CITY           SKY/WX    TMP DP  RH WIND       PRES   REMARKS
N.O. AUDUBON     N/A     82  72  72 MISG        N/A
N.O. INTL ARPT CLOUDY    80  72  76 E3        29.99F
N.O. LAKEFRONT CLOUDY    79  76  90 E8        30.01F
N.O. DOWNTOWN*   N/A     82  70  65 NE5       30.01R
SLIDELL        CLOUDY    76  72  87 CALM      30.01S
BATON ROUGE    CLOUDY    76  73  91 N3        30.00F
BOOTHVILLE     MOCLDY    80  73  79 N5        30.01R
BELLE CHASSE   NOT AVBL
BOGALUSA*        N/A     74  70  87 NE3       30.06R
GALLIANO*      NOT AVBL
NEW ROADS*       N/A     75  72  89 N5        30.01S
GONZALES*      MOCLDY    82  76  79 CALM      29.99R
HAMMOND*       MOCLDY    81  70  69 NE7       30.03R
HOUMA*         MOCLDY    79  73  80 CALM      29.99S
PORT FOURCHON* CLEAR     84  75  74 CALM      30.02R

$$

MSZ070-080>082-230200-
SOUTHERN MISSISSIPPI

CITY           SKY/WX    TMP DP  RH WIND       PRES   REMARKS
MCCOMB         MOCLDY    79  69  71 E6        30.04R
GULFPORT       MOCLDY    79  67  66 N7        30.03R
BILOXI         MOCLDY    76  72  87 VRB3      30.03R
PASCAGOULA     CLEAR     75  72  90 N5        30.03R
STENNIS ARPT*  PTCLDY   N/A N/A N/A CALM      30.03R

$$

COASTAL OBSERVATIONS
LAKE AND NEARSHORE STATIONS

STATION/POSITION TIME  TEMP    WIND        PRES    WAVE
                       AIR SEA DIR/SP/G            HT/PER
                 (UTC) (F)     (DEG/KT/KT) (MB)    (FT/S)
PASCAGOULA       0100   79     350/  6/  8 1016.2
WAVELAND YACHT   0100   79     340/  2/  3 1016.0
GRAND ISLE       0100   81 85  150/  3/  4 1016.4
SOUTHWEST PASS   0100   83 85  310/  5/  8 1016.1
NEW CANAL        0100   81 84   80/  5/  9 1016.3
SHELL BEACH      0100   81 82  340/  4/  7 1016.1

OFFSHORE STATIONS

STATION/POSITION TIME  TEMP    WIND        PRES    WAVE
                       AIR SEA DIR/SP/G            HT/PER
                 (UTC) (F)     (DEG/KT/KT) (MB)    (FT/S)

$$




USA.gov is the U.S. government's official web portal to all federal, state and local government web resources and services.